When you browse on this site, cookies collect data to enhance your experience and personalize the content and advertising you see.
Visit our Privacy Policy to learn more. By continuing to use the site, you agree to this use of cookies and data.

Hourly Weather Grand Bassam

Today, 29 September, Tuesday

Time Temperature Precipitation Wind Pressure Humidity
00:00 +26°C° 0 mm 2 mps 759 mmHg 95%
01:00 +26°C° 0 mm 2 mps 758 mmHg 95%
02:00 +26°C° 0 mm 2 mps 758 mmHg 96%
03:00 +25°C° 0 mm 2 mps 758 mmHg 96%
04:00 +26°C° 0 mm 2 mps 758 mmHg 96%
05:00 +26°C° 0 mm 2 mps 758 mmHg 95%
06:00 +26°C° 0 mm 2 mps 759 mmHg 94%
07:00 +27°C° 0 mm 2 mps 759 mmHg 89%
08:00 +28°C° 0 mm 3 mps 759 mmHg 84%
09:00 +29°C° 0 mm 3 mps 760 mmHg 79%
10:00 +29°C° 0.1 mm 4 mps 759 mmHg 77%
11:00 +30°C° 0.1 mm 4 mps 759 mmHg 75%
12:00 +30°C° 0.1 mm 4 mps 759 mmHg 73%
13:00 +30°C° 0 mm 5 mps 758 mmHg 73%
14:00 +30°C° 0 mm 5 mps 757 mmHg 73%
15:00 +30°C° 0 mm 6 mps 756 mmHg 73%
16:00 +29°C° 0 mm 5 mps 757 mmHg 78%
17:00 +28°C° 0 mm 5 mps 757 mmHg 83%
18:00 +27°C° 0 mm 4 mps 758 mmHg 88%
19:00 +27°C° 0 mm 4 mps 758 mmHg 89%
20:00 +26°C° 0 mm 4 mps 759 mmHg 91%
21:00 +26°C° 0 mm 3 mps 759 mmHg 92%
22:00 +26°C° 0.1 mm 4 mps 759 mmHg 92%
23:00 +26°C° 0.1 mm 4 mps 759 mmHg 92%

Tomorrow, 30 September, Wednesday

Time Temperature Precipitation Wind Pressure Humidity
00:00 +26°C° 0.1 mm 4 mps 759 mmHg 91%
01:00 +26°C° 0.4 mm 4 mps 759 mmHg 91%
02:00 +26°C° 0.4 mm 4 mps 758 mmHg 92%
03:00 +26°C° 0.4 mm 4 mps 757 mmHg 92%
04:00 +26°C° 0.8 mm 4 mps 758 mmHg 92%
05:00 +26°C° 0.8 mm 4 mps 758 mmHg 93%
06:00 +26°C° 0.8 mm 4 mps 758 mmHg 93%
07:00 +26°C° 0.4 mm 4 mps 759 mmHg 91%
08:00 +27°C° 0.4 mm 4 mps 759 mmHg 88%
09:00 +28°C° 0.4 mm 4 mps 759 mmHg 86%
10:00 +27°C° 0.7 mm 4 mps 759 mmHg 87%
11:00 +27°C° 0.7 mm 4 mps 759 mmHg 88%
12:00 +27°C° 0.7 mm 3 mps 759 mmHg 90%
13:00 +27°C° 0 mm 4 mps 758 mmHg 89%
14:00 +27°C° 0 mm 4 mps 757 mmHg 88%
15:00 +27°C° 0 mm 4 mps 757 mmHg 87%
16:00 +27°C° 0 mm 4 mps 757 mmHg 88%
17:00 +27°C° 0 mm 3 mps 757 mmHg 89%
18:00 +26°C° 0 mm 3 mps 757 mmHg 91%
19:00 +26°C° 0 mm 3 mps 758 mmHg 91%
20:00 +26°C° 0 mm 3 mps 758 mmHg 91%
21:00 +26°C° 0 mm 3 mps 759 mmHg 92%
22:00 +26°C° 0 mm 3 mps 758 mmHg 92%
23:00 +26°C° 0 mm 4 mps 758 mmHg 92%

Day after tomorrow, 1 October, Thursday

Time Temperature Precipitation Wind Pressure Humidity
00:00 +26°C° 0 mm 4 mps 758 mmHg 92%
01:00 +26°C° 0.1 mm 4 mps 758 mmHg 92%
02:00 +26°C° 0.1 mm 4 mps 757 mmHg 91%
03:00 +26°C° 0.1 mm 4 mps 757 mmHg 91%
04:00 +26°C° 0.4 mm 4 mps 757 mmHg 91%
05:00 +26°C° 0.4 mm 4 mps 757 mmHg 91%
06:00 +26°C° 0.4 mm 4 mps 757 mmHg 91%
07:00 +26°C° 0.6 mm 4 mps 758 mmHg 90%
08:00 +26°C° 0.6 mm 4 mps 758 mmHg 89%
09:00 +27°C° 0.6 mm 4 mps 759 mmHg 87%
10:00 +27°C° 0.8 mm 4 mps 758 mmHg 87%
11:00 +27°C° 0.8 mm 4 mps 758 mmHg 88%
12:00 +27°C° 0.8 mm 4 mps 758 mmHg 88%
13:00 +27°C° 0.1 mm 4 mps 757 mmHg 88%
14:00 +27°C° 0.1 mm 4 mps 757 mmHg 88%
15:00 +27°C° 0.1 mm 4 mps 756 mmHg 88%
16:00 +26°C° 0.1 mm 3 mps 756 mmHg 89%
17:00 +26°C° 0.1 mm 3 mps 756 mmHg 90%
18:00 +26°C° 0.1 mm 3 mps 756 mmHg 91%
19:00 +26°C° 0 mm 3 mps 757 mmHg 92%
20:00 +25°C° 0 mm 3 mps 757 mmHg 93%
21:00 +25°C° 0 mm 3 mps 758 mmHg 94%
22:00 +25°C° 0 mm 3 mps 758 mmHg 94%
23:00 +25°C° 0 mm 3 mps 758 mmHg 94%

2 October, Friday

Time Temperature Precipitation Wind Pressure Humidity
00:00 +25°C° 0 mm 2 mps 758 mmHg 95%
01:00 +25°C° 0 mm 3 mps 757 mmHg 94%
02:00 +25°C° 0 mm 3 mps 757 mmHg 94%
03:00 +25°C° 0 mm 3 mps 757 mmHg 94%
04:00 +25°C° 0.1 mm 3 mps 757 mmHg 94%
05:00 +25°C° 0.1 mm 3 mps 757 mmHg 93%
06:00 +25°C° 0.1 mm 3 mps 757 mmHg 93%
07:00 +26°C° 0.1 mm 3 mps 758 mmHg 89%
08:00 +27°C° 0.1 mm 3 mps 758 mmHg 85%
09:00 +28°C° 0.1 mm 3 mps 759 mmHg 81%
10:00 +29°C° 0.1 mm 3 mps 758 mmHg 77%
11:00 +30°C° 0.1 mm 4 mps 758 mmHg 72%
12:00 +30°C° 0.1 mm 4 mps 757 mmHg 67%
13:00 +30°C° 0 mm 4 mps 757 mmHg 68%
14:00 +30°C° 0 mm 4 mps 756 mmHg 68%
15:00 +30°C° 0 mm 4 mps 756 mmHg 68%
16:00 +29°C° 0 mm 4 mps 756 mmHg 74%
17:00 +28°C° 0 mm 4 mps 756 mmHg 80%
18:00 +27°C° 0 mm 4 mps 756 mmHg 85%
19:00 +26°C° 0 mm 4 mps 757 mmHg 88%
20:00 +26°C° 0 mm 3 mps 758 mmHg 90%
21:00 +26°C° 0 mm 3 mps 758 mmHg 92%
22:00 +26°C° 0 mm 3 mps 758 mmHg 92%
23:00 +26°C° 0 mm 3 mps 758 mmHg 92%

3 October, Saturday

Time Temperature Precipitation Wind Pressure Humidity
00:00 +25°C° 0 mm 4 mps 758 mmHg 91%
01:00 +26°C° 0 mm 4 mps 758 mmHg 90%
02:00 +26°C° 0 mm 4 mps 758 mmHg 90%
03:00 +26°C° 0 mm 4 mps 757 mmHg 89%
04:00 +26°C° 0 mm 3 mps 757 mmHg 89%
05:00 +26°C° 0 mm 3 mps 757 mmHg 88%
06:00 +26°C° 0 mm 3 mps 758 mmHg 88%
07:00 +26°C° 0 mm 3 mps 758 mmHg 87%
08:00 +27°C° 0 mm 2 mps 759 mmHg 86%
09:00 +27°C° 0 mm 2 mps 759 mmHg 84%
10:00 +27°C° 0 mm 2 mps 759 mmHg 82%
11:00 +28°C° 0 mm 3 mps 759 mmHg 81%
12:00 +28°C° 0 mm 3 mps 758 mmHg 79%
13:00 +28°C° 0 mm 3 mps 758 mmHg 77%
14:00 +29°C° 0 mm 4 mps 757 mmHg 76%
15:00 +29°C° 0 mm 4 mps 757 mmHg 74%
16:00 +28°C° 0 mm 4 mps 757 mmHg 78%
17:00 +27°C° 0 mm 3 mps 757 mmHg 82%
18:00 +26°C° 0 mm 3 mps 757 mmHg 86%
19:00 +26°C° 0 mm 3 mps 757 mmHg 88%
20:00 +26°C° 0 mm 2 mps 758 mmHg 90%
21:00 +25°C° 0 mm 2 mps 759 mmHg 92%
22:00 +25°C° 0 mm 2 mps 759 mmHg 93%
23:00 +25°C° 0 mm 3 mps 758 mmHg 93%

4 October, Sunday

Time Temperature Precipitation Wind Pressure Humidity
00:00 +25°C° 0 mm 3 mps 758 mmHg 94%
01:00 +25°C° 0 mm 3 mps 758 mmHg 93%
02:00 +25°C° 0 mm 3 mps 758 mmHg 91%
03:00 +26°C° 0 mm 4 mps 758 mmHg 90%
04:00 +26°C° 0 mm 3 mps 758 mmHg 90%
05:00 +26°C° 0 mm 3 mps 758 mmHg 90%
06:00 +26°C° 0 mm 3 mps 758 mmHg 90%
07:00 +26°C° 0.1 mm 3 mps 759 mmHg 87%
08:00 +27°C° 0.1 mm 2 mps 759 mmHg 85%
09:00 +27°C° 0.1 mm 2 mps 760 mmHg 83%
10:00 +28°C° 0.1 mm 2 mps 760 mmHg 79%
11:00 +29°C° 0.1 mm 3 mps 759 mmHg 75%
12:00 +30°C° 0.1 mm 3 mps 759 mmHg 71%
13:00 +30°C° 0.1 mm 3 mps 758 mmHg 71%
14:00 +30°C° 0.1 mm 4 mps 757 mmHg 71%
15:00 +30°C° 0.1 mm 4 mps 757 mmHg 72%
16:00 +29°C° 0 mm 4 mps 757 mmHg 77%
17:00 +28°C° 0 mm 3 mps 757 mmHg 81%
18:00 +27°C° 0 mm 3 mps 757 mmHg 86%
19:00 +26°C° 0 mm 3 mps 758 mmHg 88%
20:00 +26°C° 0 mm 3 mps 759 mmHg 90%
21:00 +26°C° 0 mm 2 mps 759 mmHg 91%
22:00 +26°C° 0 mm 2 mps 759 mmHg 92%
23:00 +26°C° 0 mm 3 mps 759 mmHg 93%
Show more